Location: Newark
(39.0622°N, 106.5590°E)
Time: 11:36:16
(UTC+00:00)

Courier 1B - Pass Details

Date: 24 January 2020
Orbit: 962 x 1209 km, 28.3° (Epoch: 22 February)

Event Time Altitude Azimuth Distance (km) Brightness Sun altitude
Rises 00:52:28 0° 262° (W) 4,071 10.3 6.9°
Reaches altitude 10° 00:55:57 10° 249° (WSW) 3,127 9.8 7.5°
Maximum altitude 01:01:45 23° 201° (SSW) 2,312 9.7 8.4°
Drops below altitude 10° 01:07:33 10° 153° (SSE) 3,128 11.5 9.4°
Sets 01:11:03 0° 139° (SE) 4,073 12.6 9.9°
